Vertical_Velocity
2 -2 -5 -3 -0 -1 8 15 10 8 -1 1 3 4 5 7 2 2 1 -1 -0 1 1 0 1 -1 -0 -1 -0 -0 -0 1 1 -3 2 -0 -0 -1 -0 1 1 1 -0
-2 2 -6 -3 3 -1 -0 -1 -13 14 5 1 1 4 3 -1 -1 -0 -0 -0 4 1 0 2 1 -1 -1 1 1 0 1 -1 1 -4 -2 -3 5 4 4 3 6 3 0
11 6 4 -3 -1 4 -6 -4 5 5 -5 -4 10 3 -4 -4 5 5 13 3 3 2 -2 -2 0 2 1 5 3 4 0 1 -1 0 -2 -5 -5 -4 -2 1 1 1 1
8 -1 4 10 -3 -8 2 -1 -2 9 10 11 5 2 5 -0 4 -0 -1 0 3 2 1 1 -0 -2 2 4 7 3 2 -2 1 -2 1 1 0 -0 -2 0 -0 2 0
-8 -19 7 -12 -3 7 2 -12 -0 2 3 4 3 -3 -1 1 2 1 1 1 2 1 1 0 2 3 0 1 1 1 -0 -1 -0 0 -1 1 1 2 1 -2 -2 -1 1
-3 2 -10 -11 1 4 -9 -3 -1 -12 -2 -1 1 3 0 -0 -1 1 -0 -3 -1 -1 -1 -1 -0 -0 -0 1 1 -0 1 -0 -0 -0 1 1 -1 1 -0 -1 2 0 -0
0 3 -9 -9 2 6 0 2 -0 -4 -1 4 2 1 -0 -0 -0 -1 -2 -3 -2 -1 -1 0 -1 1 0 0 0 1 0 -1 -0 0 1 1 1 1 -0 -0 0 -1 -1
-2 -3 1 -8 1 -5 -0 2 2 0 1 -0 -0 0 1 2 -0 -0 -1 2 1 0 -0 -1 -0 -1 -0 -0 0 0 2 -0 -1 -1 1 -0 -1 0 0 -0 -0 -2 -0
3 5 0 -0 3 5 0 -1 1 3 4 -0 -2 -3 -2 -0 -1 -4 -2 0 -1 0 1 1 0 1 1 1 1 1 -1 1 -1 2 1 -1 -0 1 1 -0 -0 -1 -2
1 3 4 2 5 -6 3 3 4 0 1 1 -1 -0 -1 -2 -3 -2 -1 -1 -2 -1 -1 -0 -0 -0 -0 1 -1 1 0 1 -1 2 1 -2 -1 -2 -0 3 0 -0 -2
1 1 -1 -1 2 2 3 5 4 1 -1 -3 -1 -1 -3 -2 -1 -0 1 0 -1 -0 1 1 -0 -1 -1 -0 -1 -2 1 -0 -1 1 -0 0 -1 1 -0 -1 2 0 -2
0 -0 -3 1 2 3 3 2 1 2 3 -1 -2 -1 1 -1 -0 1 1 2 1 -1 2 1 -0 -1 1 2 1 3 -1 3 -0 0 -1 -0 -1 -2 -0 0 -0 0 -0
-3 -2 -1 -3 -4 2 -3 3 -1 0 3 1 0 0 0 -2 -3 -1 -0 -1 -0 -1 -3 3 1 -4 1 0 0 2 -0 1 1 0 -2 -1 -5 5 -2 -0 2 -0 -0
-3 -0 -1 3 5 3 -0 -3 -1 -1 2 6 3 -1 1 1 -4 -1 -1 -2 -1 3 -2 2 1 -1 -2 3 -1 2 -0 -1 -1 1 3 1 -2 2 -1 1 -0 -1 -0
-3 -2 -5 0 -1 1 -3 -4 7 1 4 4 -1 3 -1 4 -2 -3 0 -2 -0 3 -0 -1 2 -3 1 -1 1 -0 -1 2 -0 0 1 0 1 -0 -0 0 0 -0 -0
3 -1 -2 -2 0 -0 3 -0 7 1 1 3 3 0 -5 -2 -4 6 -1 0 -2 -2 6 0 1 -3 7 -8 1 3 -4 2 -1 0 0 2 0 -0 0 -2 -0 -1 1
-0 -1 1 2 2 -1 1 2 -0 -1 -1 -5 -4 -5 -2 -1 0 1 -0 -0 -1 -1 -2 7 -2 1 2 -3 1 3 -0 0 -0 1 1 -1 1 -3 -1 2 0 -1 2
-1 0 -0 2 3 0 -0 -1 0 -1 1 4 3 2 1 0 3 -0 2 -0 -3 -2 4 -2 2 -0 -2 0 1 -1 0 -1 1 1 1 0 -1 -1 -0 1 -1 -1 -1
-2 1 2 -2 0 2 3 2 1 1 1 0 -0 -1 -2 0 1 1 1 -1 -2 -2 2 1 0 0 -1 -0 1 1 3 0 1 2 -1 -2 -1 -0 0 0 -3 -0 -2
1 1 1 1 -1 2 1 0 1 0 1 -2 -1 1 1 0 1 -0 -1 -2 -1 1 3 2 1 -0 -1 -1 1 3 1 1 2 -1 -1 -1 -1 0 -1 -3 -1 -2 -3
-1 -1 -1 -0 1 1 1 1 1 3 -1 1 1 -0 -1 -1 -2 -1 -1 -1 -0 1 3 1 1 1 -1 1 3 2 1 0 -0 -0 -1 -1 0 -2 -1 -0 -1 -0 0
1 -0 -1 -0 0 1 0 -2 2 -2 1 0 -1 -1 -1 -1 -1 -1 -0 -1 2 2 3 1 2 1 0 2 0 0 -0 -1 1 1 1 -0 -1 -1 1 0 -1 -1 -1
-1 -1 -0 0 1 0 1 0 -1 -0 0 0 -1 -1 -1 -1 -1 0 1 1 1 1 1 1 1 1 -0 -0 1 0 2 1 -0 0 -1 -1 -2 1 0 -2 -1 -1 -2
-1 0 1 1 -0 -1 0 1 1 0 1 -1 -1 -1 -1 -1 0 1 1 1 1 1 1 1 2 1 -0 0 2 2 2 0 -1 1 -1 -2 2 1 -1 -0 -1 -1 -1
-0 -1 -2 -1 -1 -1 0 -0 -1 -0 1 1 0 1 0 0 -0 0 1 0 0 -0 -1 0 1 1 1 1 2 1 1 -0 1 -1 -1 1 -0 -1 -1 -1 -1 -1 -1
1 -0 -0 -1 -1 0 -1 -0 -1 -1 0 2 -0 -0 -1 -1 0 0 1 1 1 1 1 1 0 1 1 2 2 1 2 0 -1 0 1 -1 0 0 -0 -0 -1 -1 -1
Height
3127 3129 3132 3136 3141 3145 3147 3150 3154 3159 3161 3164 3168 3171 3175 3178 3180 3183 3185 3186 3187 3188 3189 3190 3190 3190 3191 3191 3190 3190 3190 3189 3188 3186 3187 3186 3185 3185 3184 3182 3180 3178 3176
3122 3124 3127 3131 3136 3141 3144 3145 3146 3152 3159 3158 3163 3167 3170 3173 3176 3178 3180 3181 3182 3183 3184 3185 3185 3185 3186 3185 3185 3185 3184 3183 3182 3180 3178 3177 3180 3178 3178 3176 3174 3172 3170
3116 3118 3123 3127 3131 3135 3140 3144 3148 3151 3154 3158 3160 3163 3165 3168 3171 3173 3174 3176 3176 3177 3177 3179 3179 3179 3179 3180 3180 3179 3178 3176 3176 3174 3172 3169 3167 3167 3167 3166 3165 3163 3162
3110 3114 3118 3122 3126 3131 3136 3140 3145 3148 3150 3153 3154 3157 3159 3162 3164 3165 3167 3168 3169 3170 3171 3172 3172 3173 3173 3174 3174 3172 3171 3169 3168 3167 3166 3164 3161 3158 3156 3157 3157 3157 3155
3101 3106 3112 3116 3122 3127 3130 3136 3139 3141 3144 3146 3148 3151 3153 3155 3157 3159 3160 3161 3162 3163 3164 3164 3165 3166 3165 3166 3165 3164 3163 3162 3160 3159 3157 3156 3154 3153 3150 3146 3148 3148 3148
3096 3100 3107 3110 3116 3122 3125 3130 3133 3136 3138 3140 3142 3144 3146 3148 3150 3151 3153 3153 3154 3155 3155 3156 3157 3157 3157 3157 3156 3155 3154 3154 3152 3151 3150 3149 3147 3146 3145 3142 3141 3139 3139
3090 3096 3101 3104 3111 3115 3119 3123 3126 3130 3133 3134 3136 3137 3139 3141 3142 3144 3145 3146 3146 3146 3147 3147 3147 3148 3148 3148 3147 3146 3146 3145 3144 3143 3142 3141 3140 3138 3138 3136 3134 3133 3132
3084 3089 3094 3101 3104 3108 3113 3117 3120 3123 3125 3127 3129 3130 3132 3133 3135 3136 3137 3138 3138 3138 3138 3138 3138 3139 3139 3139 3139 3138 3137 3136 3136 3135 3134 3134 3134 3133 3131 3130 3128 3125 3124
3078 3082 3087 3093 3097 3099 3104 3110 3113 3116 3118 3120 3122 3124 3126 3126 3127 3128 3128 3128 3128 3128 3129 3129 3129 3130 3130 3130 3130 3129 3128 3128 3128 3129 3128 3127 3127 3126 3124 3122 3121 3119 3116
3074 3077 3081 3085 3088 3093 3097 3102 3105 3108 3110 3112 3115 3117 3117 3118 3119 3119 3120 3120 3120 3121 3121 3122 3122 3122 3122 3122 3121 3122 3122 3122 3122 3122 3122 3121 3120 3119 3117 3115 3113 3112 3110
3069 3072 3073 3077 3082 3087 3091 3095 3098 3101 3104 3105 3107 3108 3109 3109 3110 3111 3112 3112 3113 3113 3113 3114 3115 3115 3116 3116 3116 3115 3115 3115 3115 3115 3115 3113 3112 3111 3110 3109 3107 3105 3103
3065 3067 3069 3073 3076 3080 3085 3088 3091 3094 3096 3097 3099 3100 3100 3102 3103 3104 3104 3104 3105 3105 3106 3106 3107 3107 3108 3108 3108 3107 3107 3107 3106 3106 3106 3106 3105 3104 3104 3102 3100 3099 3097
3061 3063 3066 3069 3073 3077 3080 3082 3085 3087 3088 3089 3090 3092 3093 3094 3096 3096 3096 3097 3097 3097 3097 3097 3098 3098 3099 3099 3099 3099 3099 3099 3099 3099 3099 3098 3099 3098 3097 3095 3094 3093 3092
3059 3061 3064 3067 3070 3073 3074 3076 3079 3080 3082 3083 3083 3086 3087 3088 3088 3089 3089 3089 3089 3089 3089 3089 3089 3089 3091 3091 3091 3091 3091 3092 3092 3092 3092 3092 3092 3092 3091 3090 3089 3089 3088
3056 3058 3061 3064 3065 3067 3070 3074 3075 3075 3077 3079 3079 3078 3079 3080 3081 3082 3081 3081 3080 3081 3081 3082 3082 3082 3083 3083 3084 3085 3085 3085 3085 3086 3086 3086 3085 3087 3087 3087 3087 3086 3085
3053 3056 3058 3060 3063 3065 3067 3070 3071 3071 3072 3073 3073 3072 3073 3073 3073 3072 3071 3072 3072 3072 3073 3074 3074 3075 3075 3077 3078 3078 3079 3079 3080 3080 3080 3081 3082 3084 3084 3084 3084 3083 3082
3051 3053 3056 3058 3060 3062 3063 3065 3065 3067 3067 3067 3066 3066 3065 3065 3064 3064 3063 3063 3064 3065 3066 3066 3068 3069 3069 3071 3072 3073 3073 3074 3075 3076 3077 3079 3079 3080 3080 3081 3080 3079 3077
3047 3050 3052 3054 3056 3058 3059 3060 3060 3061 3061 3060 3059 3057 3057 3056 3056 3055 3055 3056 3057 3059 3060 3061 3061 3063 3064 3065 3067 3068 3069 3070 3071 3073 3075 3075 3076 3077 3077 3076 3076 3074 3071
3044 3046 3049 3051 3052 3054 3054 3055 3055 3055 3054 3053 3052 3051 3049 3049 3048 3047 3047 3049 3051 3053 3054 3055 3056 3057 3059 3061 3062 3063 3066 3067 3069 3071 3071 3072 3073 3073 3073 3071 3070 3069 3066
3041 3044 3046 3047 3048 3049 3049 3049 3049 3049 3048 3046 3045 3044 3042 3041 3040 3040 3041 3043 3044 3046 3048 3049 3050 3052 3055 3057 3059 3061 3063 3065 3066 3067 3068 3069 3069 3068 3067 3066 3065 3063 3061
3038 3040 3042 3043 3043 3043 3043 3043 3043 3042 3041 3040 3038 3036 3034 3032 3031 3033 3034 3036 3038 3040 3041 3044 3046 3049 3051 3053 3055 3058 3060 3062 3063 3063 3064 3064 3064 3064 3063 3061 3059 3058 3056
3034 3035 3037 3037 3038 3038 3037 3037 3036 3035 3033 3031 3029 3027 3025 3025 3025 3026 3027 3029 3032 3034 3036 3038 3041 3045 3047 3050 3053 3055 3057 3058 3059 3060 3060 3060 3060 3059 3057 3056 3055 3053 3052
3030 3030 3031 3032 3032 3032 3031 3030 3029 3028 3026 3024 3021 3020 3019 3019 3019 3020 3022 3024 3027 3029 3031 3035 3038 3041 3044 3046 3050 3052 3053 3054 3055 3055 3056 3055 3055 3054 3052 3051 3050 3049 3047
3025 3026 3027 3027 3026 3026 3025 3023 3022 3021 3019 3017 3016 3015 3015 3015 3015 3015 3017 3019 3022 3025 3028 3031 3034 3038 3041 3044 3046 3048 3049 3050 3050 3051 3051 3050 3050 3048 3047 3046 3045 3044 3042
3021 3021 3022 3022 3021 3019 3019 3018 3017 3016 3014 3012 3011 3010 3010 3011 3011 3012 3013 3015 3018 3021 3024 3028 3032 3035 3038 3040 3042 3044 3044 3045 3046 3046 3046 3045 3044 3044 3043 3042 3040 3038 3036
3016 3017 3017 3017 3016 3015 3014 3013 3012 3011 3010 3008 3006 3006 3006 3007 3007 3008 3010 3012 3016 3019 3023 3026 3029 3032 3034 3036 3037 3039 3040 3041 3041 3041 3041 3040 3039 3039 3038 3036 3034 3032 3030